This is the latest recevied weather packets stored in our database for station/object ALAKES. If no packets are shown the sender has not sent any weather packets the latest 10 day(s).
| Time | Temp. | Humidity | Pressure | Rain* | Wind** | Luminosity | Snow |
|---|---|---|---|---|---|---|---|
| 1787890676 | 7.78° C | 87% | - | 0 mm | - | - | - |
| 1787890054 | 7.78° C | 87% | - | 0 mm | - | - | - |
| 1787889422 | 8.33° C | 86% | - | 0 mm | - | - | - |
| 1787888792 | 8.33° C | 85% | - | 0 mm | - | - | - |
| 1787888160 | 8.89° C | 84% | - | 0 mm | - | - | - |
| 1787887538 | 9.44° C | 82% | - | 0 mm | - | - | - |
| 1787886988 | 10° C | 72% | - | 0 mm | - | - | - |
| 1787886936 | 10° C | 72% | - | 0 mm | - | - | - |
| 1787886907 | 10° C | 79% | - | 0 mm | - | - | - |
| 1787886322 | 10° C | 72% | - | 0 mm | - | - | - |
| 1787886283 | 10° C | 72% | - | 0 mm | - | - | - |
| 1787885635 | 10° C | 77% | - | 0 mm | - | - | - |
| 1787885013 | 10.56° C | 76% | - | 0 mm | - | - | - |
| 1787884389 | 11.11° C | 75% | - | 0 mm | - | - | - |
| 1787883771 | 11.67° C | 73% | - | 0 mm | - | - | - |
| 1787883192 | 11.67° C | 71% | - | 0 mm | - | - | - |
| 1787883142 | 11.67° C | 71% | - | 0 mm | - | - | - |
| 1787882520 | 12.22° C | 70% | - | 0 mm | - | - | - |
| 1787881892 | 12.78° C | 67% | - | 0 mm | - | - | - |
| 1787881268 | 13.33° C | 63% | - | 0 mm | - | - | - |
| 1787880638 | 13.89° C | 61% | - | 0 mm | - | - | - |
| 1787880011 | 13.89° C | 60% | - | 0 mm | - | - | - |
| 1787879389 | 14.44° C | 59% | - | 0 mm | - | - | - |
| 1787878765 | 14.44° C | 58% | - | 0 mm | - | - | - |
| 1787878127 | 15° C | 55% | - | 0 mm | - | - | - |
* Rain latest 24 hours (hover to see other rain measurements)
** Current wind speed in m/s (hover to see current wind gust speed)